This is the latest recevied weather packets stored in our database for station/object IN3XSV-15. If no packets are shown the sender has not sent any weather packets the latest 10 day(s).
| Time | Temp. | Humidity | Pressure | Rain* | Wind** | Luminosity | Snow |
|---|---|---|---|---|---|---|---|
| 1777802103 | 13.89° C | 46% | 861.6 hPa | 0 mm | - | - | - |
| 1777801803 | 14.44° C | 46% | 861.6 hPa | 0 mm | - | - | - |
| 1777801503 | 14.44° C | 46% | 861.6 hPa | 0 mm | - | - | - |
| 1777801203 | 14.44° C | 45% | 861.5 hPa | 0 mm | - | - | - |
| 1777800903 | 14.44° C | 45% | 861.7 hPa | 0 mm | - | - | - |
| 1777800603 | 14.44° C | 45% | 861.3 hPa | 0 mm | - | - | - |
| 1777800303 | 14.44° C | 44% | 861.5 hPa | 0 mm | - | - | - |
| 1777800003 | 14.44° C | 44% | 861.4 hPa | 0 mm | - | - | - |
| 1777799703 | 13.89° C | 44% | 861.5 hPa | 0 mm | - | - | - |
| 1777799403 | - | - | 861.4 hPa | 0 mm | - | - | - |
| 1777799103 | 15° C | 43% | 861.5 hPa | 0 mm | - | - | - |
| 1777798803 | 15° C | 42% | 861.4 hPa | 0 mm | - | - | - |
| 1777798503 | 15.56° C | 42% | 861.4 hPa | 0 mm | - | - | - |
| 1777798203 | 15.56° C | 42% | 861.3 hPa | 0 mm | - | - | - |
| 1777797903 | 15.56° C | 41% | 861.3 hPa | 0 mm | - | - | - |
| 1777797603 | 15.56° C | 41% | 861.3 hPa | 0 mm | - | - | - |
| 1777797303 | 15.56° C | 41% | 861.4 hPa | 0 mm | - | - | - |
| 1777797003 | 15.56° C | 42% | 861.2 hPa | 0 mm | - | - | - |
| 1777796703 | 15.56° C | 41% | 861.2 hPa | 0 mm | - | - | - |
| 1777796403 | 15.56° C | 40% | 861.2 hPa | 0 mm | - | - | - |
| 1777796103 | 16.11° C | 40% | 861.3 hPa | 0 mm | - | - | - |
| 1777795803 | 16.67° C | 40% | 861.2 hPa | 0 mm | - | - | - |
| 1777795503 | 16.11° C | 40% | 861.5 hPa | 0 mm | - | - | - |
| 1777795203 | 16.11° C | 40% | 861.3 hPa | 0 mm | - | - | - |
| 1777794903 | 15.56° C | 40% | 861.3 hPa | 0 mm | - | - | - |
* Rain latest hour (hover to see other rain measurements)
** Current wind speed in m/s (hover to see current wind gust speed)